This demonstration page uses our WeatherBlox Daily Observations layout. Learn more.

Left ArrowRight Arrow

Hourly Observations for December 2, 2016

Temp ( °F °C ) Dew Point ( °F °C ) Humidity (%) Winds ( mph kmh ) Pressure ( in mb ) Visibility ( mi km ) Precip ( " mm )
12:18 am 00:18 Cloudy 36 2 30 -1 81 81 W 12 19 30.12 1020 10 16 N/A
12:38 am 00:38 Cloudy 36 2 30 -1 81 81 W 10 17 30.12 1020 10 16 N/A
12:59 am 00:59 Cloudy 36 2 30 -1 81 81 W 9 15 30.12 1020 10 16 N/A
1:18 am 01:18 Cloudy 36 2 28 -2 75 75 W 12 19 30.12 1020 10 16 N/A
1:38 am 01:38 Cloudy 36 2 30 -1 81 81 W 8 13 30.12 1020 10 16 N/A
1:59 am 01:59 Cloudy 36 2 30 -1 81 81 W 8 13 30.12 1020 10 16 N/A
2:18 am 02:18 Cloudy 36 2 30 -1 81 81 W 8 13 30.12 1020 10 16 N/A
2:38 am 02:38 Cloudy 36 2 30 -1 81 81 W 8 13 30.15 1021 10 16 N/A
2:59 am 02:59 Cloudy 36 2 30 -1 81 81 W 10 17 30.15 1021 10 16 N/A
3:18 am 03:18 Cloudy 36 2 30 -1 81 81 W 10 17 30.15 1021 10 16 N/A
3:39 am 03:39 Cloudy 36 2 30 -1 81 81 WNW 10 17 30.15 1021 10 16 N/A
3:58 am 03:58 Cloudy 36 2 28 -2 75 75 W 8 13 30.15 1021 10 16 N/A
4:18 am 04:18 Cloudy 36 2 30 -1 81 81 W 9 15 30.15 1021 10 16 N/A
4:39 am 04:39 Cloudy 36 2 30 -1 81 81 W 12 19 30.15 1021 10 16 N/A
4:59 am 04:59 Cloudy 36 2 28 -2 75 75 WNW 9 15 30.15 1021 10 16 N/A
5:18 am 05:18 Cloudy 34 1 28 -2 81 81 W 9 15 30.18 1022 10 16 N/A
5:39 am 05:39 Cloudy 36 2 30 -1 81 81 W 10 17 30.18 1022 10 16 N/A
5:59 am 05:59 Cloudy 34 1 28 -2 81 81 W 10 17 30.18 1022 10 16 N/A
6:18 am 06:18 Cloudy 34 1 28 -2 81 81 WSW 7 11 30.18 1022 10 16 N/A
6:39 am 06:39 Cloudy 34 1 30 -1 87 87 WSW 8 13 30.18 1022 10 16 N/A
6:59 am 06:59 Cloudy 34 1 28 -2 81 81 WSW 9 15 30.18 1022 10 16 N/A
7:18 am 07:18 Cloudy 34 1 28 -2 81 81 W 8 13 30.21 1023 10 16 N/A
7:39 am 07:39 Cloudy 34 1 30 -1 87 87 W 8 13 30.21 1023 10 16 N/A
7:59 am 07:59 Cloudy 36 2 30 -1 81 81 W 6 9 30.21 1023 10 16 N/A
8:18 am 08:18 Cloudy 36 2 30 -1 81 81 W 9 15 30.21 1023 10 16 N/A
8:39 am 08:39 Cloudy 36 2 30 -1 81 81 W 8 13 30.21 1023 10 16 N/A
8:58 am 08:58 Cloudy 36 2 30 -1 81 81 W 10 17 30.21 1023 10 16 N/A
9:18 am 09:18 Cloudy 36 2 30 -1 81 81 W 8 13 30.24 1024 10 16 N/A
9:39 am 09:39 Cloudy 36 2 30 -1 81 81 W 10 17 30.24 1024 10 16 N/A
9:58 am 09:58 Cloudy 36 2 30 -1 81 81 W 12 19 30.24 1024 10 16 N/A
10:18 am 10:18 Cloudy 36 2 30 -1 81 81 W 10 17 30.24 1024 10 16 N/A
10:39 am 10:39 Cloudy 37 3 30 -1 75 75 W 10 17 30.24 1024 10 16 N/A
10:58 am 10:58 Cloudy 37 3 30 -1 75 75 W 12 19 30.24 1024 10 16 N/A
11:18 am 11:18 Cloudy 37 3 32 undefined 81 81 W 10 17 30.24 1024 10 16 N/A
11:39 am 11:39 Cloudy 37 3 32 undefined 81 81 W 10 17 30.24 1024 10 16 N/A
11:58 am 11:58 Cloudy 37 3 32 undefined 81 81 W 12 19 30.24 1024 10 16 N/A
12:18 pm 12:18 Cloudy 37 3 32 undefined 81 81 W 9 15 30.24 1024 10 16 N/A
12:39 pm 12:39 Cloudy 37 3 32 undefined 81 81 W 10 17 30.24 1024 10 16 N/A
12:58 pm 12:58 Cloudy 39 4 32 undefined 75 75 W 10 17 30.24 1024 10 16 N/A
1:18 pm 13:18 Cloudy 39 4 32 undefined 75 75 W 9 15 30.24 1024 10 16 N/A
1:39 pm 13:39 Cloudy 39 4 32 undefined 75 75 W 9 15 30.24 1024 10 16 N/A
1:58 pm 13:58 Cloudy 39 4 30 -1 70 70 WNW 12 19 30.24 1024 10 16 N/A
2:18 pm 14:18 Cloudy 39 4 30 -1 70 70 W 13 20 30.24 1024 10 16 N/A
2:39 pm 14:39 Cloudy 39 4 30 -1 70 70 NW 9 15 30.24 1024 10 16 N/A
2:58 pm 14:58 Cloudy 39 4 30 -1 70 70 W 12 19 30.24 1024 10 16 N/A
3:18 pm 15:18 Cloudy 39 4 30 -1 70 70 WNW 14 22 30.24 1024 10 16 N/A
3:39 pm 15:39 Cloudy 39 4 30 -1 70 70 NW 9 15 30.24 1024 10 16 N/A
3:58 pm 15:58 Cloudy 39 4 30 -1 70 70 WNW 10 17 30.27 1025 10 16 N/A
4:19 pm 16:19 Cloudy 39 4 30 -1 70 70 W 9 15 30.27 1025 10 16 N/A
4:39 pm 16:39 Cloudy 39 4 30 -1 70 70 WNW 12 19 30.27 1025 10 16 N/A
4:58 pm 16:58 Cloudy 39 4 30 -1 70 70 WNW 9 15 30.27 1025 10 16 N/A
5:19 pm 17:19 Cloudy 39 4 30 -1 70 70 NW 9 15 30.27 1025 10 16 N/A
5:39 pm 17:39 Cloudy 37 3 30 -1 75 75 WNW 8 13 30.27 1025 10 16 N/A
5:58 pm 17:58 Cloudy 37 3 32 undefined 81 81 WNW 7 11 30.27 1025 10 16 N/A
6:19 pm 18:19 Cloudy 37 3 32 undefined 81 81 NW 12 19 30.30 1026 10 16 N/A
6:39 pm 18:39 Cloudy 37 3 32 undefined 81 81 NW 10 17 30.30 1026 10 16 N/A
6:58 pm 18:58 Cloudy 37 3 32 undefined 81 81 NW 10 17 30.30 1026 10 16 N/A
7:19 pm 19:19 Cloudy 36 2 32 undefined 87 87 NW 7 11 30.30 1026 10 16 N/A
7:38 pm 19:38 Cloudy 36 2 32 undefined 87 87 NW 6 9 30.30 1026 10 16 N/A
7:58 pm 19:58 Cloudy 36 2 32 undefined 87 87 NW 5 7 30.33 1027 10 16 N/A
8:19 pm 20:19 Cloudy 36 2 34 1 93 93 WNW 6 9 30.33 1027 7 11 N/A
8:39 pm 20:39 Cloudy 36 2 34 1 93 93 WNW 5 7 30.33 1027 5 8 N/A
8:58 pm 20:58 Cloudy 36 2 34 1 93 93 W 3 6 30.33 1027 10 16 N/A
9:19 pm 21:19 Cloudy 36 2 34 1 93 93 W 7 11 30.33 1027 10 16 N/A
9:39 pm 21:39 Cloudy 36 2 34 1 93 93 W 6 9 30.33 1027 10 16 N/A
9:58 pm 21:58 Cloudy 36 2 34 1 93 93 W 5 7 30.33 1027 10 16 N/A
10:19 pm 22:19 Cloudy 36 2 34 1 93 93 W 5 7 30.33 1027 10 16 N/A
10:38 pm 22:38 Cloudy 36 2 34 1 93 93 W 6 9 30.33 1027 10 16 N/A
10:58 pm 22:58 Cloudy 36 2 34 1 93 93 WSW 5 7 30.33 1027 10 16 N/A
11:19 pm 23:19 Cloudy 36 2 34 1 93 93 W 6 9 30.33 1027 10 16 N/A
11:39 pm 23:39 Cloudy 36 2 34 1 93 93 W 5 7 30.33 1027 10 16 N/A
11:58 pm 23:58 Cloudy 36 2 34 1 93 93 W 7 11 30.33 1027 10 16 N/A

Powered by AerisWeather